Location: *
(60.1759°S, 155.0663°W)
Time: 19:08:49
(UTC+00:00)

SL-24 DEB - Pass Details

Date: 17 September 2019
Orbit: 667 x 700 km, 92.0° (Epoch: 19 October)

Event Time Altitude Azimuth Distance (km) Brightness Sun altitude
Rises 14:56:39 0° 177° (S) 3,073 7.9 -11.5°
Reaches altitude 10° 14:58:59 10° 182° (S) 2,148 7.0 -11.2°
Maximum altitude 15:03:33 50° 256° (WSW) 870 4.5 -10.7°
Drops below altitude 10° 15:08:03 10° 330° (NNW) 2,117 6.4 -10.1°
Sets 15:10:19 0° 335° (NNW) 3,024 7.2 -9.9°
